This demonstration page uses our WeatherBlox Daily Observations layout. Learn more.

Hourly Observations for February 13, 2017

Temp ( °F °C ) Dew Point ( °F °C ) Humidity (%) Winds ( mph kmh ) Pressure ( in mb ) Visibility ( mi km ) Precip ( " mm )
12:54 am 00:54 Clear 24 -4.4 18 -7.8 77 77 Calm 30.46 1031 10 16.0934 0 0
1:54 am 01:54 Clear 23 -5 17 -8.3 78 78 Calm 30.44 1031 10 16.0934 0 0
2:54 am 02:54 Clear 24 -4.4 17 -8.3 75 75 Calm 30.42 1030 10 16.0934 0 0
3:54 am 03:54 Clear 25 -3.9 18 -7.8 75 75 SSE 3 6 30.4 1029 10 16.0934 0 0
4:54 am 04:54 Clear 27 -2.8 20 -6.7 75 75 SE 7 11 30.39 1029 10 16.0934 0 0
5:54 am 05:54 Mostly Cloudy 30 -1.1 21 -6.1 69 69 Calm 30.38 1029 10 16.0934 0 0
6:54 am 06:54 Mostly Clear 29 -1.7 20 -6.7 69 69 S 3 6 30.38 1029 10 16.0934 0 0
7:54 am 07:54 Sunny 33 0.6 23 -5 66 66 S 7 11 30.36 1028 10 16.0934 0 0
8:54 am 08:54 Mostly Cloudy 37 2.8 22 -5.6 54 54 SSW 6 9 30.35 1028 10 16.0934 0 0
9:54 am 09:54 Partly Cloudy 44 6.7 19 -7.2 37 37 SW 17 28 30.33 1027 10 16.0934 0 0
10:54 am 10:54 Partly Cloudy 47 8.3 16 -8.9 29 29 SW 20 31 30.31 1026 10 16.0934 0 0
11:54 am 11:54 Cloudy 50 10 16 -8.9 26 26 SW 20 31 30.28 1025 10 16.0934 0 0
1:54 pm 13:54 Sunny 51 10.6 20 -6.7 29 29 W 15 24 30.21 1023 10 16.0934 0 0
2:54 pm 14:54 Sunny 52 11 19 -7 28 28 WSW 15 24 30.18 1022 10 16.0934 0 0
3:54 pm 15:54 Sunny 51 10.6 24 -4.4 35 35 SW 14 22 30.16 1021 10 16.0934 0 0
4:54 pm 16:54 Sunny 50 10 26 -3.3 39 39 WSW 12 19 30.14 1021 10 16.0934 0 0
5:54 pm 17:54 Sunny 48 8.9 27 -2.8 44 44 SW 9 15 30.14 1021 10 16.0934 0 0
6:54 pm 18:54 Clear 44 6.7 28 -2.2 53 53 SW 3 6 30.15 1021 10 16.0934 0 0
7:54 pm 19:54 Clear 42 5.6 27 -2.8 55 55 SW 5 7 30.13 1020 10 16.0934 0 0
8:54 pm 20:54 Clear 39 3.9 26 -3.3 60 60 SSW 3 6 30.12 1020 10 16.0934 0 0
9:54 pm 21:54 Clear 37 2.8 26 -3.3 65 65 Calm 30.11 1020 10 16.0934 0 0
10:54 pm 22:54 Clear 33 0.6 26 -3.3 75 75 NW 6 9 30.11 1020 10 16.0934 0 0
11:54 pm 23:54 Clear 30 -1.1 25 -3.9 82 82 NNW 3 6 30.12 1020 10 16.0934 0 0

Powered by AerisWeather